This demonstration page uses our WeatherBlox Daily Observations layout. Learn more.

Left ArrowRight Arrow

41.12389, -100.76542

Hourly Observations for July 23, 2015

Temp ( °F °C ) Dew Point ( °F °C ) Humidity (%) Winds ( mph kmh ) Pressure ( in mb ) Visibility ( mi km ) Precip ( " mm )
12:53 am 00:53 Clear 67 19.4 65 18.3 93 93 E 6 9 29.85 1011 10 16 0.00 0.00
1:53 am 01:53 Clear 66 18.9 64 17.8 93 93 E 6 9 29.85 1011 10 16 0.00 0.00
2:53 am 02:53 Clear 66 18.9 64 17.8 93 93 ESE 7 11 29.84 1011 10 16 0.00 0.00
3:53 am 03:53 Clear 64 17.8 63 17.2 96 96 ESE 5 7 29.85 1011 10 16 0.00 0.00
4:53 am 04:53 Clear 65 18.3 63 17.2 93 93 Calm 29.85 1011 10 16 0.00 0.00
5:53 am 05:53 Clear 63 17.2 62 16.7 97 97 E 5 7 29.85 1011 10 16 0.00 0.00
6:53 am 06:53 Sunny with Mist and Fog 63 17.2 62 16.7 97 97 ESE 5 7 29.86 1011 6 10 0.00 0.00
7:53 am 07:53 Sunny 67 19.4 65 18.3 93 93 ESE 7 11 29.86 1011 8 13 0.00 0.00
8:53 am 08:53 Sunny 72 22.2 67 19.4 84 84 SSE 7 11 29.86 1011 10 16 0.00 0.00
9:53 am 09:53 Sunny 78 25.6 68 20 71 71 S 12 19 29.86 1011 10 16 0.00 0.00
10:53 am 10:53 Sunny 79 26.1 69 20.6 72 72 S 15 24 29.86 1011 10 16 0.00 0.00
11:53 am 11:53 Sunny 83 28.3 71 21.7 67 67 S 12 19 29.86 1011 10 16 0.00 0.00
12:53 pm 12:53 Sunny 85 29.4 71 21.7 63 63 S 12 19 29.85 1011 10 16 0.00 0.00
1:53 pm 13:53 Sunny 87 30.6 72 22.2 61 61 S 8 13 29.85 1011 10 16 0.00 0.00
2:53 pm 14:53 Sunny 87 30.6 72 22.2 61 61 S 15 24 29.83 1010 10 16 0.00 0.00
3:53 pm 15:53 Sunny 87 30.6 71 21.7 59 59 S 14 22 29.83 1010 10 16 0.00 0.00
4:53 pm 16:53 Sunny 87 30.6 71 21.7 59 59 S 12 19 29.81 1009 10 16 0.00 0.00
5:53 pm 17:53 Mostly Sunny 88 31.1 70 21.1 55 55 S 10 17 29.83 1010 10 16 0.00 0.00
6:53 pm 18:53 Sunny 86 30 70 21.1 59 59 S 6 9 29.82 1010 10 16 0.00 0.00
7:16 pm 19:16 Sunny with Nearby Thunderstorms 86 30 70 21.1 59 59 S 9 15 29.71 1006 10 16 0.00 0.00
7:28 pm 19:28 Partly Cloudy with Thunderstorms 84 29 64 18 51 51 WSW 12 19 29.71 1006 10 16 0.00 0.00
7:37 pm 19:37 Sunny with Nearby Thunderstorms 83 28.3 62 16.7 49 49 SW 15 24 29.68 1005 10 16 0.00 0.00
7:45 pm 19:45 Sunny with Thunderstorms 85 29.4 58 14.4 40 40 SE 9 15 29.68 1005 10 16 0.00 0.00
7:53 pm 19:53 Sunny with Thunderstorms 83 28.3 61 16.1 48 48 ESE 12 19 29.79 1009 10 16 0.00 0.00
8:05 pm 20:05 Sunny with Nearby Thunderstorms 81 27 63 17 54 54 E 6 9 29.71 1006 10 16 0.00 0.00
8:15 pm 20:15 Sunny 81 27 64 18 58 58 SE 7 11 29.71 1006 10 16 0.00 0.00
8:53 pm 20:53 Sunny 79 26.1 60 15.6 52 52 S 15 24 29.83 1010 10 16 0.00 0.00
9:53 pm 21:53 Clear 76 24.4 55 12.8 48 48 SSE 12 19 29.83 1010 10 16 0.00 0.00
10:53 pm 22:53 Clear 75 23.9 58 14.4 55 55 SSE 9 15 29.83 1010 10 16 0.00 0.00
11:53 pm 23:53 Clear 74 23.3 60 15.6 62 62 SSE 6 9 29.82 1010 10 16 0.00 0.00

Powered by AerisWeather